This is the latest recevied weather packets stored in our database for station/object KC1OEK-13. If no packets are shown the sender has not sent any weather packets the latest 10 day(s).
| Time | Temp. | Humidity | Pressure | Rain* | Wind** | Luminosity | Snow |
|---|---|---|---|---|---|---|---|
| 1787927442 | 24.44° C | 83% | 1019 hPa | 0 mm | - | 253 W/m² | - |
| 1787927137 | 23.89° C | 85% | 1019.2 hPa | 0 mm | - | 242 W/m² | - |
| 1787926832 | 23.89° C | 85% | 1019.1 hPa | 0 mm | - | 360 W/m² | - |
| 1787926531 | 23.89° C | 86% | 1019.2 hPa | 0 mm | - | 258 W/m² | - |
| 1787926230 | 23.89° C | 86% | 1019.1 hPa | 0 mm | - | 278 W/m² | - |
| 1787925925 | 23.33° C | 87% | 1019.1 hPa | 0 mm | - | 253 W/m² | - |
| 1787925625 | 23.33° C | 86% | 1019.2 hPa | 0 mm | - | 200 W/m² | - |
| 1787925320 | 23.33° C | 87% | 1019.1 hPa | 0 mm | - | 225 W/m² | - |
| 1787925019 | 23.33° C | 88% | 1019.1 hPa | 0 mm | - | 213 W/m² | - |
| 1787924713 | 22.78° C | 88% | 1018.9 hPa | 0 mm | - | 262 W/m² | - |
| 1787924408 | 22.78° C | 89% | 1019.1 hPa | 0 mm | - | 213 W/m² | - |
| 1787924103 | 22.78° C | 89% | 1019 hPa | 0 mm | - | 165 W/m² | - |
| 1787923797 | 22.22° C | 90% | 1018.8 hPa | 0 mm | - | 157 W/m² | - |
| 1787923492 | 22.78° C | 91% | 1018.8 hPa | 0 mm | - | 158 W/m² | - |
| 1787923188 | 22.22° C | 92% | 1018.7 hPa | 0 mm | - | 167 W/m² | - |
| 1787922883 | 22.22° C | 93% | 1018.7 hPa | 0 mm | - | 168 W/m² | - |
| 1787922582 | 21.67° C | 94% | 1018.8 hPa | 0 mm | - | 179 W/m² | - |
| 1787922282 | 21.67° C | 95% | 1018.7 hPa | 0 mm | - | 167 W/m² | - |
| 1787921978 | 21.67° C | 97% | 1018.5 hPa | 0 mm | - | 163 W/m² | - |
| 1787921674 | 21.11° C | 98% | 1018.6 hPa | 0 mm | - | 155 W/m² | - |
| 1787921368 | 20.56° C | 99% | 1018.3 hPa | 0 mm | - | 156 W/m² | - |
| 1787921064 | 20.56° C | 99% | 1018.6 hPa | 0 mm | - | 143 W/m² | - |
| 1787920764 | 20.56° C | 99% | 1018.3 hPa | 0 mm | - | 134 W/m² | - |
| 1787920463 | 20.56° C | 99% | 1018.5 hPa | 0 mm | - | 79 W/m² | - |
| 1787920161 | 20.56° C | 99% | 1018.2 hPa | 0 mm | - | 63 W/m² | - |
* Rain latest hour (hover to see other rain measurements)
** Current wind speed in m/s (hover to see current wind gust speed)